FW7011 Weather Reports


Display with metric or nautical units.
time (UTC)temp
F
wind
direction
speed
MPH
gust
MPH
rain 1hr
in
rain 24hr
in
rain mn
in
humidity
%
barometer
mb
20260906100111 0 117 0.0 2.0 0.00 0.00 0.00 1015.2
20260906095610 0 265 1.0 3.0 0.00 0.00 0.00 1014.9
20260906095106 0 196 2.0 3.0 0.00 0.00 0.00 1014.7
20260906094605 0 112 3.0 5.0 0.00 0.00 0.00 1014.4
20260906094101 0 111 3.0 4.0 0.00 0.00 0.00 1014.4
20260906093556 0 125 1.0 3.0 0.00 0.00 0.00 1014.3
20260906093051 0 107 3.0 5.0 0.00 0.00 0.00 1014.3
20260906092546 0 107 4.0 5.0 0.00 0.00 0.00 1014.2
20260906092041 0 118 2.0 4.0 0.00 0.00 0.00 1014.3
20260906091537 0 95 1.0 2.0 0.00 0.00 0.00 1014.3
20260906091033 0 224 1.0 2.0 0.00 0.00 0.00 1014.4
20260906090528 0 92 1.0 3.0 0.00 0.00 0.00 1014.1
20260906090023 0 111 3.0 4.0 0.00 0.00 0.00 1014.3
20260906085521 0 112 3.0 5.0 0.00 0.00 0.00 1014.2
20260906085021 0 100 3.0 4.0 0.00 0.00 0.00 1014.3
20260906084516 0 54 2.0 2.0 0.00 0.00 0.00 1014.5
20260906084015 0 161 1.0 1.0 0.00 0.00 0.00 1014.4
20260906083511 0 240 2.0 2.0 0.00 0.00 0.00 1014.5
20260906083010 0 118 2.0 3.0 0.00 0.00 0.00 1014.2
20260906082505 0 114 2.0 2.0 0.00 0.00 0.00 1014.2
20260906082001 0 128 2.0 2.0 0.00 0.00 0.00 1014.2
20260906081456 0 113 3.0 4.0 0.00 0.00 0.00 1014.3
20260906080952 0 108 3.0 3.0 0.00 0.00 0.00 1014.1
20260906080448 0 49 0.0 3.0 0.00 0.00 0.00 1014.3
20260906075943 0 60 0.0 2.0 0.00 0.00 0.00 1014.6
20260906075438 0 73 1.0 2.0 0.00 0.00 0.00 1014.2
20260906074933 0 15 0.0 1.0 0.00 0.00 0.00 1014.4
20260906074433 0 66 1.0 3.0 0.00 0.00 0.00 1014.4
20260906073931 0 125 2.0 4.0 0.00 0.00 0.00 1014.2
20260906073426 0 71 2.0 2.0 0.00 0.00 0.00 1014.4
20260906072923 0 47 0.0 2.0 0.00 0.00 0.00 1014.5
20260906072418 0 145 1.0 3.0 0.00 0.00 0.00 1014.3
20260906071913 0 118 3.0 5.0 0.00 0.00 0.00 1014.2
20260906071404 0 118 3.0 5.0 0.00 0.00 0.00 1014.3
20260906070900 0 117 3.0 5.0 0.00 0.00 0.00 1014.3
20260906070355 0 114 4.0 4.0 0.00 0.00 0.00 1014.6
20260906065851 0 123 3.0 4.0 0.00 0.00 0.00 1014.6
20260906065345 0 126 4.0 5.0 0.00 0.00 0.00 1014.6
20260906064841 0 129 3.0 5.0 0.00 0.00 0.00 1014.7
20260906064337 0 123 0.0 2.0 0.00 0.00 0.00 1014.7
20260906063837 0 116 3.0 3.0 0.00 0.00 0.00 1014.7
20260906063332 0 132 2.0 4.0 0.00 0.00 0.00 1014.5
20260906062827 0 125 2.0 3.0 0.00 0.00 0.00 1014.7
20260906062326 0 117 1.0 3.0 0.00 0.00 0.00 1014.7
20260906061822 0 65 2.0 3.0 0.00 0.00 0.00 1014.7
20260906061318 0 49 2.0 3.0 0.00 0.00 0.00 1014.9
20260906060813 0 47 2.0 2.0 0.00 0.00 0.00 1014.9
20260906060311 0 61 1.0 3.0 0.00 0.00 0.00 1014.8
20260906055807 0 76 0.0 2.0 0.00 0.00 0.00 1015.0
20260906055306 0 231 0.0 2.0 0.00 0.00 0.00 1014.9
20260906054756 0 141 2.0 3.0 0.00 0.00 0.00 1014.8
20260906054252 0 50 1.0 3.0 0.00 0.00 0.00 1014.7
20260906053748 0 15 2.0 3.0 0.00 0.00 0.00 1014.7
20260906053244 0 105 1.0 3.0 0.00 0.00 0.00 1014.9
20260906052739 0 135 3.0 5.0 0.00 0.00 0.00 1014.8
20260906052235 0 116 4.0 4.0 0.00 0.00 0.00 1015.0
20260906051732 0 76 0.0 3.0 0.00 0.00 0.00 1015.1
20260906051231 0 102 0.0 3.0 0.00 0.00 0.00 1014.9
20260906050726 0 125 2.0 4.0 0.00 0.00 0.00 1015.1
20260906050222 0 126 3.0 4.0 0.00 0.00 0.00 1014.9
20260906045720 0 106 2.0 3.0 0.00 0.00 0.00 1014.9
20260906045216 0 111 2.0 4.0 0.00 0.00 0.00 1015.0
20260906044711 0 119 3.0 4.0 0.00 0.00 0.00 1014.8
20260906044206 0 121 3.0 4.0 0.00 0.00 0.00 1015.1
20260906043702 0 119 4.0 5.0 0.00 0.00 0.00 1014.9
20260906043157 0 119 4.0 6.0 0.00 0.00 0.00 1014.9
20260906042657 0 26 3.0 5.0 0.00 0.00 0.00 1014.8
20260906042151 0 21 2.0 5.0 0.00 0.00 0.00 1014.8
20260906041647 0 24 3.0 3.0 0.00 0.00 0.00 1015.1
20260906041142 0 82 2.0 3.0 0.00 0.00 0.00 1014.9
20260906040637 0 107 1.0 3.0 0.00 0.00 0.00 1015.0
20260906040133 0 106 2.0 4.0 0.00 0.00 0.00 1014.9
20260906035628 0 67 3.0 3.0 0.00 0.00 0.00 1015.0
20260906035124 0 106 3.0 4.0 0.00 0.00 0.00 1015.0
20260906034624 0 113 4.0 4.0 0.00 0.00 0.00 1015.0
20260906034118 0 101 2.0 3.0 0.00 0.00 0.00 1015.1
20260906033614 0 125 2.0 4.0 0.00 0.00 0.00 1015.1
20260906033108 0 126 3.0 4.0 0.00 0.00 0.00 1014.9
20260906032606 0 122 2.0 3.0 0.00 0.00 0.00 1015.2
20260906032100 0 118 3.0 3.0 0.00 0.00 0.00 1015.1
20260906031555 0 99 2.0 3.0 0.00 0.00 0.00 1015.1
20260906031051 0 108 0.0 3.0 0.00 0.00 0.00 1015.4
20260906030550 0 132 3.0 3.0 0.00 0.00 0.00 1015.4
20260906030049 0 109 2.0 3.0 0.00 0.00 0.00 1015.2
20260906025544 0 86 0.0 2.0 0.00 0.00 0.00 1015.4
20260906025042 0 88 1.0 2.0 0.00 0.00 0.00 1015.2
20260906024538 0 82 0.0 3.0 0.00 0.00 0.00 1015.1
20260906024037 0 104 2.0 3.0 0.00 0.00 0.00 1015.1
20260906023534 0 108 4.0 4.0 0.00 0.00 0.00 1015.1
20260906023028 0 122 3.0 4.0 0.00 0.00 0.00 1015.2
20260906022523 0 135 3.0 3.0 0.00 0.00 0.00 1015.3
20260906022013 0 130 3.0 4.0 0.00 0.00 0.00 1015.0
20260906021509 0 123 3.0 4.0 0.00 0.00 0.00 1015.0
20260906021003 0 111 2.0 3.0 0.00 0.00 0.00 1015.2
20260906020502 0 110 2.0 2.0 0.00 0.00 0.00 1015.0
20260906020001 0 84 0.0 2.0 0.00 0.00 0.00 1015.0
20260906015501 0 119 3.0 3.0 0.00 0.00 0.00 1015.1
20260906015001 0 120 2.0 3.0 0.00 0.00 0.00 1015.1
20260906014455 0 110 2.0 3.0 0.00 0.00 0.00 1014.8
20260906013951 0 117 4.0 4.0 0.00 0.00 0.00 1014.8
20260906013447 0 112 4.0 4.0 0.00 0.00 0.00 1014.8
20260906012942 0 116 3.0 4.0 0.00 0.00 0.00 1014.9
20260906012437 0 112 1.0 3.0 0.00 0.00 0.00 1014.5
20260906011936 0 97 1.0 4.0 0.00 0.00 0.00 1014.6
20260906011432 0 73 1.0 2.0 0.00 0.00 0.00 1014.5
20260906010927 0 95 2.0 2.0 0.00 0.00 0.00 1014.9
20260906010422 0 101 3.0 4.0 0.00 0.00 0.00 1014.6
20260906005919 0 111 3.0 4.0 0.00 0.00 0.00 1014.5
20260906005418 0 106 4.0 4.0 0.00 0.00 0.00 1014.5
20260906004916 0 99 4.0 4.0 0.00 0.00 0.00 1014.3
20260906004411 0 106 4.0 4.0 0.00 0.00 0.00 1014.2
20260906003907 0 107 4.0 4.0 0.00 0.00 0.00 1014.2
20260906003402 0 51 2.0 3.0 0.00 0.00 0.00 1014.3
20260906002857 0 99 3.0 3.0 0.00 0.00 0.00 1014.2
20260906002356 0 104 3.0 4.0 0.00 0.00 0.00 1014.2
20260906001852 0 96 3.0 4.0 0.00 0.00 0.00 1014.2
20260906001348 0 119 3.0 4.0 0.00 0.00 0.00 1013.8
20260906000842 0 116 4.0 4.0 0.00 0.00 0.00 1013.9
20260906000342 0 106 4.0 4.0 0.00 0.00 0.00 1013.9
20260905235837 0 102 3.0 3.0 0.00 0.00 0.00 1013.8
20260905235331 0 116 2.0 3.0 0.00 0.00 0.00 1013.7
20260905234827 0 115 3.0 3.0 0.00 0.00 0.00 1013.9
20260905234322 0 119 3.0 3.0 0.00 0.00 0.00 1013.4
20260905233817 0 132 2.0 4.0 0.00 0.00 0.00 1013.7
20260905233312 0 113 2.0 3.0 0.00 0.00 0.00 1013.7
20260905232811 0 107 1.0 3.0 0.00 0.00 0.00 1013.6
20260905232308 0 139 2.0 3.0 0.00 0.00 0.00 1013.3
20260905231803 0 189 0.0 1.0 0.00 0.00 0.00 1013.3
20260905231258 0 197 0.0 2.0 0.00 0.00 0.00 1013.7
20260905230754 0 296 1.0 2.0 0.00 0.00 0.00 1013.6
20260905230252 0 264 0.0 2.0 0.00 0.00 0.00 1013.7
20260905225751 0 245 1.0 2.0 0.00 0.00 0.00 1013.7
20260905225247 0 309 0.0 1.0 0.00 0.00 0.00 1013.7
20260905224746 0 305 2.0 3.0 0.00 0.00 0.00 1013.8
20260905224242 0 306 1.0 3.0 0.00 0.00 0.00 1014.0
20260905223737 0 336 3.0 3.0 0.00 0.00 0.00 1013.8
20260905223234 0 337 3.0 4.0 0.00 0.00 0.00 1013.6
20260905222730 0 320 2.0 4.0 0.00 0.00 0.00 1013.7
20260905222229 0 305 2.0 3.0 0.00 0.00 0.00 1013.7
20260905221725 0 299 3.0 6.0 0.00 0.00 0.00 1013.8
20260905221221 0 288 1.0 4.0 0.00 0.00 0.00 1013.8
20260905220717 0 313 3.0 6.0 0.00 0.00 0.00 1013.7
20260905220213 0 264 3.0 4.0 0.00 0.00 0.00 1013.8
20260905215712 0 277 3.0 4.0 0.00 0.00 0.00 1013.8
20260905215208 0 344 4.0 5.0 0.00 0.00 0.00 1013.8
20260905214704 0 255 5.0 10.0 0.00 0.00 0.00 1013.8
20260905214159 0 232 5.0 6.0 0.00 0.00 0.00 1013.9
20260905213654 0 281 4.0 5.0 0.00 0.00 0.00 1013.7
20260905213150 0 288 2.0 6.0 0.00 0.00 0.00 1013.8
20260905212645 0 17 0.0 4.0 0.00 0.00 0.00 1013.7
20260905212144 0 314 4.0 8.0 0.00 0.00 0.00 1013.6
20260905211639 0 258 3.0 6.0 0.00 0.00 0.00 1013.9
20260905211134 0 288 4.0 4.0 0.00 0.00 0.00 1013.8
20260905210631 0 328 3.0 9.0 0.00 0.00 0.00 1013.6
20260905210125 0 255 2.0 5.0 0.00 0.00 0.00 1013.4
20260905205624 0 288 3.0 6.0 0.00 0.00 0.00 1013.6
20260905205124 0 254 6.0 7.0 0.00 0.00 0.00 1013.7
20260905204624 0 251 4.0 6.0 0.00 0.00 0.00 1013.8
20260905204120 0 288 5.0 5.0 0.00 0.00 0.00 1014.0
20260905203619 0 248 4.0 5.0 0.00 0.00 0.00 1013.9
20260905203115 0 233 4.0 5.0 0.00 0.00 0.00 1014.1
20260905202610 0 287 3.0 4.0 0.00 0.00 0.00 1013.9
20260905202105 0 241 5.0 5.0 0.00 0.00 0.00 1013.9
20260905201601 0 220 5.0 9.0 0.00 0.00 0.00 1014.2
20260905201100 0 233 7.0 8.0 0.00 0.00 0.00 1013.9
20260905200556 0 253 2.0 6.0 0.00 0.00 0.00 1013.9
20260905200056 0 263 3.0 4.0 0.00 0.00 0.00 1013.8
20260905195550 0 251 5.0 5.0 0.00 0.00 0.00 1013.9
20260905195046 0 282 3.0 6.0 0.00 0.00 0.00 1013.8
20260905194545 0 231 6.0 6.0 0.00 0.00 0.00 1014.0
20260905194044 0 267 6.0 6.0 0.00 0.00 0.00 1013.7
20260905193539 0 267 3.0 5.0 0.00 0.00 0.00 1013.8
20260905193035 0 280 3.0 3.0 0.00 0.00 0.00 1013.4
20260905192530 0 179 1.0 2.0 0.00 0.00 0.00 1013.6
20260905192027 0 232 2.0 4.0 0.00 0.00 0.00 1013.7
20260905191524 0 246 2.0 4.0 0.00 0.00 0.00 1013.0
20260905191024 0 231 0.0 4.0 0.00 0.00 0.00 1012.8
20260905190522 0 225 3.0 5.0 0.00 0.00 0.00 1013.3
20260905190022 0 273 2.0 5.0 0.00 0.00 0.00 1013.2
20260905185516 0 1 3.0 3.0 0.00 0.00 0.00 1013.4
20260905185015 0 48 2.0 3.0 0.00 0.00 0.00 1013.9
20260905184510 0 279 4.0 10.0 0.00 0.00 0.00 1014.2
20260905184009 0 34 5.0 6.0 0.00 0.00 0.00 1014.3
20260905183508 0 330 4.0 10.0 0.00 0.00 0.00 1014.3
20260905183003 0 281 7.0 7.0 0.00 0.00 0.00 1012.7
20260905182503 0 19 0.0 6.0 0.00 0.00 0.00 1012.6
20260905181957 0 118 3.0 5.0 0.00 0.00 0.00 1013.0
20260905181453 0 181 0.0 5.0 0.00 0.00 0.00 1013.6
20260905180951 0 105 6.0 10.0 0.00 0.00 0.00 1013.9
20260905180446 0 119 6.0 6.0 0.00 0.00 0.00 1014.0
20260905175942 0 10 3.0 4.0 0.00 0.00 0.00 1014.5
20260905175441 0 151 0.0 3.0 0.00 0.00 0.00 1015.4
20260905174937 0 218 0.0 3.0 0.00 0.00 0.00 1015.2
20260905174432 0 259 3.0 4.0 0.00 0.00 0.00 1015.5
20260905173927 0 29 3.0 9.0 0.00 0.00 0.00 1015.5
20260905173424 0 327 3.0 11.0 0.00 0.00 0.00 1015.7
20260905172919 0 338 6.0 8.0 0.00 0.00 0.00 1015.9
20260905172417 0 294 4.0 7.0 0.00 0.00 0.00 1016.1
20260905171913 0 248 3.0 9.0 0.00 0.00 0.00 1016.8
20260905171409 0 351 3.0 14.0 0.00 0.00 0.00 1016.7
20260905170905 0 329 2.0 9.0 0.00 0.00 0.00 1016.5
20260905170401 0 299 7.0 16.0 0.00 0.00 0.00 1016.1
20260905165900 0 345 6.0 12.0 0.00 0.00 0.00 1016.1
20260905165356 0 299 6.0 8.0 0.00 0.00 0.00 1015.8
20260905164850 0 356 3.0 5.0 0.00 0.00 0.00 1015.8
20260905164345 0 266 5.0 10.0 0.00 0.00 0.00 1016.0
20260905163840 0 316 5.0 7.0 0.00 0.00 0.00 1016.1
20260905163337 0 240 9.0 11.0 0.00 0.00 0.00 1015.8
20260905162832 0 285 5.0 5.0 0.00 0.00 0.00 1015.7
20260905162326 0 329 5.0 6.0 0.00 0.00 0.00 1015.9
20260905161821 0 299 3.0 5.0 0.00 0.00 0.00 1015.7
20260905161320 0 14 3.0 5.0 0.00 0.00 0.00 1015.6
20260905160819 0 71 3.0 6.0 0.00 0.00 0.00 1015.8
20260905160313 0 15 3.0 7.0 0.00 0.00 0.00 1015.8
20260905155808 0 35 2.0 5.0 0.00 0.00 0.00 1015.8
20260905155307 0 1 5.0 5.0 0.00 0.00 0.00 1015.9
20260905154801 0 264 3.0 3.0 0.00 0.00 0.00 1015.9
20260905154257 0 246 0.0 4.0 0.00 0.00 0.00 1015.8
20260905153752 0 246 3.0 4.0 0.00 0.00 0.00 1016.0
20260905153248 0 44 2.0 3.0 0.00 0.00 0.00 1016.1
20260905152742 0 261 2.0 4.0 0.00 0.00 0.00 1016.1
20260905152237 0 281 3.0 3.0 0.00 0.00 0.00 1016.1
20260905151736 0 245 0.0 5.0 0.00 0.00 0.00 1015.8
20260905151232 0 193 0.0 2.0 0.00 0.00 0.00 1015.7
20260905150726 0 112 1.0 2.0 0.00 0.00 0.00 1015.9
20260905150225 0 246 4.0 5.0 0.00 0.00 0.00 1015.7
20260905145723 0 229 0.0 4.0 0.00 0.00 0.00 1015.8
20260905145218 0 248 2.0 4.0 0.00 0.00 0.00 1015.9
20260905144718 0 333 0.0 2.0 0.00 0.00 0.00 1015.8
20260905144218 0 259 4.0 5.0 0.00 0.00 0.00 1015.9
20260905143712 0 311 2.0 3.0 0.00 0.00 0.00 1015.9
20260905143212 0 238 3.0 4.0 0.00 0.00 0.00 1015.8
20260905142710 0 276 2.0 3.0 0.00 0.00 0.00 1015.9
20260905142205 0 321 0.0 3.0 0.00 0.00 0.00 1015.9
20260905141700 0 249 0.0 3.0 0.00 0.00 0.00 1015.8
20260905141156 0 285 0.0 4.0 0.00 0.00 0.00 1016.1
20260905140651 0 267 2.0 4.0 0.00 0.00 0.00 1015.5
20260905140151 0 249 3.0 3.0 0.00 0.00 0.00 1015.8
20260905135645 0 230 0.0 2.0 0.00 0.00 0.00 1015.6
20260905135136 0 174 0.0 2.0 0.00 0.00 0.00 1015.6
20260905134630 0 336 0.0 2.0 0.00 0.00 0.00 1015.5
20260905134129 0 200 1.0 2.0 0.00 0.00 0.00 1015.7
20260905133624 0 123 2.0 2.0 0.00 0.00 0.00 1015.8
20260905133119 0 123 2.0 3.0 0.00 0.00 0.00 1015.9
20260905132619 0 159 1.0 1.0 0.00 0.00 0.00 1015.8
20260905132113 0 282 2.0 2.0 0.00 0.00 0.00 1015.9
20260905131609 0 265 1.0 3.0 0.00 0.00 0.00 1015.9
20260905131104 0 232 2.0 3.0 0.00 0.00 0.00 1015.8
20260905130603 0 265 0.0 1.0 0.00 0.00 0.00 1015.6
20260905130058 0 296 0.0 1.0 0.00 0.00 0.00 1015.9
20260905125557 0 246 0.0 1.0 0.00 0.00 0.00 1015.9
20260905125053 0 223 0.0 2.0 0.00 0.00 0.00 1016.0
20260905124550 0 132 2.0 3.0 0.00 0.00 0.00 1016.0
20260905124045 0 118 2.0 2.0 0.00 0.00 0.00 1016.1
20260905123540 0 199 1.0 3.0 0.00 0.00 0.00 1015.9
20260905123037 0 117 2.0 3.0 0.00 0.00 0.00 1016.1
20260905122537 0 112 3.0 3.0 0.00 0.00 0.00 1016.1
20260905122032 0 59 0.0 2.0 0.00 0.00 0.00 1016.0
20260905121532 0 66 0.0 3.0 0.00 0.00 0.00 1016.2
20260905121026 0 354 0.0 1.0 0.00 0.00 0.00 1016.2
20260905120521 0 113 0.0 3.0 0.00 0.00 0.00 1016.1
20260905120016 0 93 2.0 4.0 0.00 0.00 0.00 1016.0
20260905115514 0 118 3.0 3.0 0.00 0.00 0.00 1016.2
20260905115009 0 119 3.0 4.0 0.00 0.00 0.00 1016.0
20260905114504 0 125 2.0 3.0 0.00 0.00 0.00 1016.0
20260905114003 0 111 2.0 2.0 0.00 0.00 0.00 1015.8
20260905113458 0 89 1.0 3.0 0.00 0.00 0.00 1015.8
20260905112953 0 132 2.0 3.0 0.00 0.00 0.00 1015.7
20260905112448 0 123 2.0 2.0 0.00 0.00 0.00 1015.8
20260905111944 0 132 1.0 2.0 0.00 0.00 0.00 1015.6
20260905111443 0 180 0.0 1.0 0.00 0.00 0.00 1015.7
20260905110938 0 353 0.0 2.0 0.00 0.00 0.00 1015.3
20260905110431 0 65 2.0 2.0 0.00 0.00 0.00 1015.5
20260905105932 0 114 0.0 2.0 0.00 0.00 0.00 1015.3
20260905105426 0 111 0.0 2.0 0.00 0.00 0.00 1015.5
20260905104925 0 128 3.0 6.0 0.00 0.00 0.00 1015.5
20260905104421 0 118 4.0 5.0 0.00 0.00 0.00 1015.4
20260905103916 0 96 5.0 6.0 0.00 0.00 0.00 1015.4
20260905103412 0 108 4.0 5.0 0.00 0.00 0.00 1015.4
20260905102907 0 114 3.0 3.0 0.00 0.00 0.00 1015.5
20260905102403 0 129 3.0 3.0 0.00 0.00 0.00 1015.4
20260905101858 0 111 2.0 3.0 0.00 0.00 0.00 1015.6
20260905101356 0 104 3.0 3.0 0.00 0.00 0.00 1015.5
20260905100851 0 82 1.0 2.0 0.00 0.00 0.00 1015.3
20260905100347 0 141 0.0 2.0 0.00 0.00 0.00 1015.6